CAPE
0 1 0 1 0 0 0 0 0 1 1 0 0 0 0 0 0 0 0 0 0 0 0 0 0 0 0 0 0 0 0 0 0 0 0 0 0 153 158 225 752 904 942 906 765
1 1 1 1 1 0 1 0 1 0 1 0 0 0 0 0 0 0 0 0 0 0 0 0 0 0 0 0 0 0 0 0 0 0 0 0 14 13 152 425 722 1057 726 334 61
2 1 1 1 1 0 1 1 1 0 2 0 0 0 0 0 0 0 0 0 0 0 0 0 0 0 0 0 0 0 0 0 0 0 0 0 0 267 609 1089 1159 1203 976 784 767
0 0 0 1 1 1 1 1 1 0 1 0 0 0 0 0 0 0 0 0 0 0 0 0 0 0 0 0 0 0 0 0 0 0 0 0 0 0 17 54 63 165 170 154 131
0 0 0 1 1 1 0 1 0 1 0 0 0 0 0 0 0 0 0 0 0 0 0 0 0 0 0 0 0 0 0 0 0 0 0 0 0 0 0 0 0 0 0 0 0
0 0 0 1 0 0 0 0 0 0 0 0 0 0 0 0 0 0 0 0 0 0 0 0 0 0 0 0 0 0 0 0 0 0 0 0 0 0 0 0 0 0 0 0 0
1 0 0 1 0 0 0 1 0 0 0 0 0 0 0 0 0 0 0 0 0 0 0 0 0 0 0 0 0 0 0 0 0 0 0 0 0 0 0 0 0 0 0 0 0
0 0 1 1 1 0 1 0 0 0 0 0 0 0 0 0 0 0 0 0 0 0 0 0 0 0 0 0 0 0 0 0 0 0 0 0 0 0 0 0 0 0 0 0 0
1 2 1 0 0 0 0 0 0 0 0 0 0 0 0 0 0 0 0 0 0 0 0 0 0 0 0 0 0 0 0 0 0 0 0 0 0 0 0 0 0 0 0 0 0
2 2 0 1 0 0 0 0 0 0 0 0 0 0 0 0 0 0 0 0 0 0 0 0 0 0 0 0 0 0 0 0 0 0 0 0 0 0 0 0 0 0 0 0 0
0 0 1 0 0 0 0 0 0 0 0 0 0 0 0 0 0 0 0 0 0 0 0 0 0 0 0 0 0 0 0 0 0 0 0 0 0 0 0 0 0 0 0 0 0
0 0 0 0 0 0 0 0 0 0 0 0 0 0 0 0 0 0 0 0 0 0 0 0 0 0 0 0 0 0 0 0 0 0 0 0 0 0 0 0 0 0 0 0 0
0 1 0 0 0 0 0 0 0 0 0 0 0 0 0 0 0 0 0 0 0 0 0 0 0 0 0 0 0 0 0 0 0 0 0 0 0 0 0 0 0 0 0 0 0
1 0 0 0 0 0 0 0 0 0 0 0 0 0 0 0 0 0 0 0 0 0 0 0 0 0 0 0 0 0 0 0 0 0 0 0 0 0 0 0 0 0 0 0 0
1 0 0 3 0 0 0 0 0 0 0 0 0 0 0 0 0 0 0 0 0 0 0 0 0 0 0 0 0 0 0 0 0 0 0 0 0 0 0 0 0 0 0 0 0
0 0 0 0 0 0 0 0 0 0 0 0 0 0 0 0 0 0 0 0 0 0 0 0 0 0 0 0 0 0 0 0 0 0 0 0 0 0 0 0 0 0 0 0 0
0 0 0 0 0 0 0 0 0 0 0 0 0 0 0 0 0 0 0 0 0 0 0 0 0 0 0 0 0 0 0 0 0 0 0 0 0 0 0 0 0 0 0 0 0
0 0 0 0 0 0 0 0 0 0 0 0 0 0 0 0 0 0 0 0 0 0 0 0 0 0 0 0 0 0 0 3 3 8 16 0 0 0 0 0 0 0 0 0 0
0 0 0 0 0 0 0 0 0 0 0 0 0 0 0 0 0 0 0 0 0 0 0 0 0 0 0 0 0 11 0 0 19 31 65 24 0 0 0 0 0 0 0 0 0
0 0 0 0 0 0 0 0 0 0 0 0 0 0 13 1 0 0 0 0 0 0 0 1 5 0 0 0 0 0 0 20 30 48 87 74 15 0 0 0 0 0 0 0 0
0 0 0 0 0 0 0 0 0 0 0 0 0 0 0 0 0 15 18 0 0 0 0 0 11 8 0 0 0 0 1 3 23 41 114 118 13 0 0 0 0 0 0 0 0
0 0 0 0 0 0 0 0 0 0 0 0 0 0 0 0 0 0 0 0 0 0 0 0 27 106 7 0 0 0 0 0 99 149 111 107 24 0 0 0 0 0 0 0 0
0 0 0 0 0 0 0 0 0 0 0 0 0 0 0 0 0 0 0 0 0 0 0 0 0 89 5 0 0 0 0 0 0 4 66 92 22 0 0 0 0 0 0 0 0
0 0 0 0 0 0 0 0 0 0 0 0 0 0 0 0 0 0 0 0 0 0 0 0 0 15 84 34 0 0 0 0 0 48 82 18 0 0 0 0 0 0 0 0 0
0 0 0 0 0 0 0 0 0 0 0 0 0 0 0 0 0 0 0 0 0 0 0 0 0 0 0 0 0 0 0 0 0 0 7 8 0 0 0 0 0 0 0 0 0
0 0 0 0 0 0 0 0 0 0 0 0 0 0 0 0 0 0 0 0 0 0 0 0 0 0 0 0 0 0 0 0 0 0 0 0 0 0 0 0 0 0 0 0 0
0 0 0 0 0 0 0 0 0 0 0 0 0 0 0 0 0 0 0 0 0 0 0 0 0 0 0 0 0 0 0 0 0 0 0 0 0 0 0 0 0 0 0 0 0
CIN
-0 -0 -0 -0 -0 -0 -0 -0 -0 -0 -0 -0 -0 -0 -0 -0 -0 -0 -0 -0 -0 -0 -0 -0 -0 -0 -0 -0 -0 -0 -0 -0 -0 -0 -0 -0 -0 -27 -40 -1 -48 -94 -75 -116 -120
-0 -0 -0 -0 -0 -0 -0 -0 -0 -0 -0 -0 -0 -0 -0 -0 -0 -0 -0 -0 -0 -0 -0 -0 -0 -0 -0 -0 -0 -0 -0 -0 -0 -0 -0 -0 -102 -125 -30 -44 -14 -86 -146 -171 -184
-0 -0 -0 -0 -0 -0 -0 -0 -0 -0 -0 -0 -0 -0 -0 -0 -0 -0 -0 -0 -0 -0 -0 -0 -0 -0 -0 -0 -0 -0 -0 -0 -0 -0 -0 -0 -0 -149 -35 -58 -30 -30 -60 -82 -91
-0 -0 -0 -0 -0 -0 -0 -0 -0 -0 -0 -0 -0 -0 -0 -0 -0 -0 -0 -0 -0 -0 -0 -0 -0 -0 -0 -0 -0 -0 -0 -0 -0 -0 -0 -0 -0 -0 -293 -296 -262 -223 -208 -231 -296
-0 -0 -0 -0 -0 -0 -0 -0 -0 -0 -0 -0 -0 -0 -0 -0 -0 -0 -0 -0 -0 -0 -0 -0 -0 -0 -0 -0 -0 -0 -0 -0 -0 -0 -0 -0 -0 -0 -0 -0 -0 -0 -0 -0 -0
-0 -0 -0 -0 -0 -0 -0 -0 -0 -0 -0 -0 -0 -0 -0 -0 -0 -0 -0 -0 -0 -0 -0 -0 -0 -0 -0 -0 -0 -0 -0 -0 -0 -0 -0 -0 -0 -0 -0 -0 -0 -0 -0 -0 -0
-0 -0 -0 -0 -0 -0 -0 -0 -0 -0 -0 -0 -0 -0 -0 -0 -0 -0 -0 -0 -0 -0 -0 -0 -0 -0 -0 -0 -0 -0 -0 -0 -0 -0 -0 -0 -0 -0 -0 -0 -0 -0 -0 -0 -0
-0 -0 -0 -0 -0 -0 -0 -0 -0 -0 -0 -0 -0 -0 -0 -0 -0 -0 -0 -0 -0 -0 -0 -0 -0 -0 -0 -0 -0 -0 -0 -0 -0 -0 -0 -0 -0 -0 -0 -0 -0 -0 -0 -0 -0
-0 -0 -0 -0 -0 -0 -0 -0 -0 -0 -0 -0 -0 -0 -0 -0 -0 -0 -0 -0 -0 -0 -0 -0 -0 -0 -0 -0 -0 -0 -0 -0 -0 -0 -0 -0 -0 -0 -0 -0 -0 -0 -0 -0 -0
-0 -0 -0 -0 -0 -0 -0 -0 -0 -0 -0 -0 -0 -0 -0 -0 -0 -0 -0 -0 -0 -0 -0 -0 -0 -0 -0 -0 -0 -0 -0 -0 -0 -0 -0 -0 -0 -0 -0 -0 -0 -0 -0 -0 -0
-0 -0 -0 -0 -0 -0 -0 -0 -0 -0 -0 -0 -0 -0 -0 -0 -0 -0 -0 -0 -0 -0 -0 -0 -0 -0 -0 -0 -0 -0 -0 -0 -0 -0 -0 -0 -0 -0 -0 -0 -0 -0 -0 -0 -0
-0 -0 -0 -0 -0 -0 -0 -0 -0 -0 -0 -0 -0 -0 -0 -0 -0 -0 -0 -0 -0 -0 -0 -0 -0 -0 -0 -0 -0 -0 -0 -0 -0 -0 -0 -0 -0 -0 -0 -0 -0 -0 -0 -0 -0
-0 -0 -0 -0 -0 -0 -0 -0 -0 -0 -0 -0 -0 -0 -0 -0 -0 -0 -0 -0 -0 -0 -0 -0 -0 -0 -0 -0 -0 -0 -0 -0 -0 -0 -0 -0 -0 -0 -0 -0 -0 -0 -0 -0 -0
-0 -0 -0 -0 -0 -0 -0 -0 -0 -0 -0 -0 -0 -0 -0 -0 -0 -0 -0 -0 -0 -0 -0 -0 -0 -0 -0 -0 -0 -0 -0 -0 -0 -0 -0 -0 -0 -0 -0 -0 -0 -0 -0 -0 -0
-0 -0 -0 -0 -0 -0 -0 -0 -0 -0 -0 -0 -0 -0 -0 -0 -0 -0 -0 -0 -0 -0 -0 -0 -0 -0 -0 -0 -0 -0 -0 -0 -0 -0 -0 -0 -0 -0 -0 -0 -0 -0 -0 -0 -0
-0 -0 -0 -0 -0 -0 -0 -0 -0 -0 -0 -0 -0 -0 -0 -0 -0 -0 -0 -0 -0 -0 -0 -0 -0 -0 -0 -0 -0 -0 -0 -0 -0 -0 -0 -0 -0 -0 -0 -0 -0 -0 -0 -0 -0
-0 -0 -0 -0 -0 -0 -0 -0 -0 -0 -0 -0 -0 -0 -0 -0 -0 -0 -0 -0 -0 -0 -0 -0 -0 -0 -0 -0 -0 -0 -0 -0 -0 -0 -0 -0 -0 -0 -0 -0 -0 -0 -0 -0 -0
-0 -0 -0 -0 -0 -0 -0 -0 -0 -0 -0 -0 -0 -0 -0 -0 -0 -0 -0 -0 -0 -0 -0 -0 -0 -0 -0 -0 -0 -0 -0 -0 -2 -0 -0 -0 -0 -0 -0 -0 -0 -0 -0 -0 -0
-0 -0 -0 -0 -0 -0 -0 -0 -0 -0 -0 -0 -0 -0 -0 -0 -0 -0 -0 -0 -0 -0 -0 -0 -0 -0 -0 -0 -0 -1 -0 -0 -9 -3 -0 -36 -0 -0 -0 -0 -0 -0 -0 -0 -0
-0 -0 -0 -0 -0 -0 -0 -0 -0 -0 -0 -0 -0 -0 -0 -0 -0 -0 -0 -0 -0 -0 -0 -1 -1 -0 -0 -0 -0 -0 -0 -0 -3 -0 -0 -22 -26 -0 -0 -0 -0 -0 -0 -0 -0
-0 -0 -0 -0 -0 -0 -0 -0 -0 -0 -0 -0 -0 -0 -0 -0 -0 -0 -1 -0 -0 -0 -0 -0 -6 -0 -0 -0 -0 -0 -0 -14 -12 -12 -0 -0 -32 -0 -0 -0 -0 -0 -0 -0 -0
-0 -0 -0 -0 -0 -0 -0 -0 -0 -0 -0 -0 -0 -0 -0 -0 -0 -0 -0 -0 -0 -0 -0 -0 -22 -0 -4 -0 -0 -0 -0 -0 -0 -0 -0 -7 -3 -0 -0 -0 -0 -0 -0 -0 -0
-0 -0 -0 -0 -0 -0 -0 -0 -0 -0 -0 -0 -0 -0 -0 -0 -0 -0 -0 -0 -0 -0 -0 -0 -2 -0 -0 -0 -0 -0 -0 -0 -0 -52 -8 -0 -1 -0 -0 -0 -0 -0 -0 -0 -0
-0 -0 -0 -0 -0 -0 -0 -0 -0 -0 -0 -0 -0 -0 -0 -0 -0 -0 -0 -0 -0 -0 -0 -0 -0 -8 -2 -19 -0 -0 -0 -0 -0 -2 -0 -2 -0 -0 -0 -0 -0 -0 -0 -0 -0
-0 -0 -0 -0 -0 -0 -0 -0 -0 -0 -0 -0 -0 -0 -0 -0 -0 -0 -0 -0 -0 -0 -0 -0 -0 -0 -0 -0 -0 -0 -0 -0 -0 -0 -0 -2 -0 -0 -0 -0 -0 -0 -0 -0 -0
-0 -0 -0 -0 -0 -0 -0 -0 -0 -0 -0 -0 -0 -0 -0 -0 -0 -0 -0 -0 -0 -0 -0 -0 -0 -0 -0 -0 -0 -0 -0 -0 -0 -0 -0 -0 -0 -0 -0 -0 -0 -0 -0 -0 -0
-0 -0 -0 -0 -0 -0 -0 -0 -0 -0 -0 -0 -0 -0 -0 -0 -0 -0 -0 -0 -0 -0 -0 -0 -0 -0 -0 -0 -0 -0 -0 -0 -0 -0 -0 -0 -0 -0 -0 -0 -0 -0 -0 -0 -0
Wind_Speed
8 8 7 6 6 6 6 6 6 6 6 8 7 7 8 8 10 8 11 1 1 5 5 7 7 7 9 11 9 7 8 8 5 3 7 24 20 11 1 19 22 15 16 15 14
7 7 7 6 7 7 6 7 7 6 6 7 7 6 6 7 10 14 3 3 5 7 11 11 10 10 12 13 8 11 10 9 4 2 12 24 23 10 20 16 19 20 17 15 14
8 7 7 6 7 7 7 7 7 6 6 6 6 6 6 10 8 3 6 8 7 10 13 9 6 11 12 11 12 15 12 6 5 10 15 8 24 27 18 22 20 15 16 16 17
8 8 7 6 6 7 7 7 7 6 6 6 5 6 6 8 1 6 4 10 9 9 11 11 11 12 12 13 10 12 14 8 2 16 19 15 23 29 26 21 18 20 18 17 20
8 8 7 7 6 6 7 6 6 6 5 5 6 6 6 8 3 6 2 13 13 9 11 11 12 12 12 10 10 14 8 6 13 21 19 21 25 23 23 19 19 20 20 20 19
8 7 7 6 6 6 6 6 6 5 4 5 5 7 7 7 3 2 10 15 13 13 8 8 7 6 6 8 14 13 11 10 15 14 13 23 21 10 17 16 19 20 21 21 22
8 6 6 6 5 6 5 5 4 4 4 4 5 6 7 5 3 7 10 5 12 6 8 6 5 9 7 8 4 9 16 17 5 11 17 13 21 15 11 13 17 19 18 20 20
8 7 6 5 5 6 6 2 3 4 4 4 5 6 6 3 4 6 8 7 8 4 1 5 5 3 7 3 8 13 15 14 13 7 2 11 11 10 9 11 14 16 15 17 20
8 7 6 4 4 5 4 2 3 4 3 5 7 6 2 6 7 12 11 8 9 6 5 6 7 4 8 13 12 10 14 18 7 6 3 3 14 9 8 11 13 14 14 15 17
9 7 6 4 3 5 2 3 6 8 6 6 4 7 6 4 8 7 10 8 8 10 8 8 9 10 11 12 13 15 9 5 5 11 16 20 17 11 9 11 12 13 14 15 16
9 7 5 4 4 4 5 6 7 7 7 7 3 5 2 2 6 10 11 13 9 11 11 11 11 14 15 14 9 7 9 13 14 11 11 16 16 12 10 10 12 13 13 14 15
9 7 4 4 4 3 7 5 5 6 7 11 11 8 8 3 7 11 11 14 11 14 7 9 14 9 4 5 10 9 12 17 11 7 10 15 15 12 10 11 11 12 13 13 13
9 6 4 4 3 5 5 3 2 4 7 5 5 7 6 10 9 15 18 17 14 13 14 14 1 7 9 10 12 14 18 18 13 12 14 19 12 12 10 10 11 11 11 12 13
8 5 3 4 4 4 5 2 5 5 6 9 7 6 8 7 8 2 15 14 9 14 11 11 9 9 10 12 14 15 17 17 23 17 9 24 7 12 11 10 9 10 11 12 13
7 3 5 10 4 5 6 5 2 6 6 4 7 4 6 12 12 7 7 11 12 9 8 9 13 14 11 12 18 14 17 21 23 18 6 21 10 16 11 9 7 8 10 11 12
6 2 6 6 4 3 6 2 6 8 3 5 6 11 12 11 6 7 11 8 5 7 11 9 1 6 9 4 10 2 15 14 11 12 11 17 15 13 13 10 6 7 9 9 10
6 5 8 4 2 4 2 5 7 7 2 4 2 8 15 10 7 9 13 15 11 12 14 13 14 5 5 6 9 13 20 9 10 11 11 9 11 13 13 8 5 5 7 8 9
2 8 8 6 3 6 5 7 6 3 3 3 2 6 14 9 8 9 10 12 9 10 4 9 11 11 2 7 8 15 22 13 15 14 13 8 9 10 12 8 6 5 4 6 8
6 5 3 3 5 5 7 7 3 5 6 9 7 9 11 8 7 12 14 13 5 7 8 6 4 6 2 2 5 16 17 13 15 6 10 12 8 7 12 9 5 5 4 6 7
3 3 4 4 4 6 7 5 2 3 7 6 7 3 8 13 11 11 13 2 5 2 3 0 6 4 5 4 4 9 2 9 11 19 21 12 10 7 18 13 7 5 4 5 5
4 4 5 2 4 6 7 0 1 3 5 5 4 5 3 4 9 10 4 6 1 4 4 3 6 7 5 4 7 6 11 8 8 7 13 16 8 7 14 11 8 6 4 4 5
3 3 3 4 6 2 5 1 1 1 2 2 4 4 3 4 4 3 3 5 2 3 4 3 5 10 2 4 3 3 5 7 9 13 8 9 7 8 11 10 8 7 4 4 5
0 4 3 4 4 5 3 3 4 3 4 4 2 4 4 3 5 3 0 3 2 3 2 3 5 9 7 7 7 7 1 4 6 6 16 10 7 10 10 10 7 5 4 3 4
3 4 4 1 3 6 1 1 3 7 4 3 4 2 3 4 2 3 2 1 1 3 4 4 3 7 11 8 5 5 6 3 6 8 10 3 15 13 11 10 8 6 4 4 5
4 5 5 2 6 5 1 4 3 4 6 9 3 8 6 5 5 5 3 3 2 5 2 4 6 2 4 3 2 3 1 5 8 5 7 10 11 14 11 9 7 5 3 4 5
3 1 4 6 3 6 5 8 8 5 8 5 6 8 6 5 7 8 7 4 3 4 3 2 3 9 5 5 7 10 8 8 8 9 9 13 14 11 9 7 5 4 3 4 6
2 2 1 5 6 2 8 7 9 3 4 5 7 7 5 7 6 4 2 2 2 3 5 5 8 7 6 9 10 7 5 4 5 4 9 5 11 9 8 5 4 4 3 5 6
Wind_Direction
340 339 335 321 323 316 321 313 310 307 299 296 302 311 312 308 280 218 251 245 146 122 211 179 191 189 209 223 235 248 247 230 132 242 50 39 19 56 46 68 76 67 75 93 110
331 325 321 317 321 329 323 316 311 302 292 290 298 303 305 314 268 259 199 118 233 187 205 197 184 189 203 218 205 225 229 222 81 5 9 67 35 15 75 55 66 76 90 105 105
326 319 314 319 323 328 320 316 307 305 297 293 296 300 300 289 266 128 52 184 197 198 230 235 197 206 213 213 202 215 241 166 205 23 42 60 60 33 71 58 50 73 91 94 81
322 317 315 320 322 319 315 312 308 301 288 289 294 291 298 250 285 88 348 176 167 210 183 188 199 202 213 206 197 236 230 251 70 62 72 79 85 65 62 65 59 59 64 72 69
322 319 318 319 318 318 313 307 298 288 283 285 284 284 256 226 257 60 76 152 175 191 187 191 203 214 214 203 186 226 180 199 95 96 88 81 72 76 66 64 66 67 60 56 60
322 324 322 318 319 319 312 300 291 282 266 260 268 276 250 244 44 95 129 153 172 193 187 209 221 225 213 195 209 188 79 92 140 101 103 86 65 78 60 72 72 66 61 55 53
322 328 319 322 316 317 308 287 256 232 237 249 259 260 251 285 63 138 163 160 170 194 189 190 235 217 165 169 159 170 138 121 55 170 145 127 57 63 64 65 67 64 63 59 50
327 326 322 321 319 317 311 276 199 200 218 237 248 246 266 104 203 192 187 157 187 178 138 169 191 235 248 95 179 187 210 190 50 202 61 225 89 61 54 69 65 59 58 57 53
330 325 320 322 316 312 314 160 172 187 212 215 227 252 192 132 210 202 195 170 158 167 114 143 206 224 182 201 192 201 202 209 118 20 119 216 118 86 73 76 69 61 53 49 46
331 326 320 310 290 303 275 239 162 184 201 213 254 242 208 156 147 166 185 196 172 167 169 204 201 203 217 214 212 193 184 48 94 66 96 102 109 99 83 81 72 63 55 46 42
337 326 313 285 262 285 208 190 199 180 209 258 80 311 94 106 174 190 177 189 172 196 203 204 218 215 208 218 290 307 223 130 120 117 83 108 114 103 92 80 70 62 52 48 42
338 325 297 248 266 263 257 265 32 6 287 217 250 256 258 270 184 171 184 197 203 209 201 189 230 226 254 230 222 203 154 142 126 139 130 132 113 108 96 81 65 59 53 43 37
338 320 269 236 225 220 250 278 33 313 262 161 199 235 202 199 202 169 192 204 205 212 210 240 174 150 199 187 204 195 192 174 145 145 140 139 131 136 118 99 83 62 54 47 37
337 317 250 189 228 147 218 153 251 276 263 135 189 179 177 220 188 150 207 194 206 217 211 235 188 217 209 204 214 198 221 172 153 165 182 217 146 174 155 119 78 60 47 37 32
334 306 220 235 346 224 72 295 245 209 248 122 135 87 165 212 124 157 179 210 214 199 218 198 205 208 228 232 196 237 188 179 182 211 163 192 259 129 177 163 93 61 50 39 31
325 247 177 206 236 322 312 203 216 229 188 140 137 176 179 200 162 129 186 230 305 206 220 272 28 257 265 81 233 270 161 167 199 226 232 182 225 150 174 168 128 74 52 39 29
303 204 208 303 38 348 286 212 238 257 109 118 149 189 201 185 170 202 183 196 207 206 212 204 226 195 252 154 156 164 158 166 203 209 241 145 203 76 117 121 98 75 51 35 24
201 168 201 276 312 323 232 236 255 49 359 24 303 247 218 181 194 185 201 192 220 258 267 228 181 204 139 264 209 199 204 244 214 218 208 160 216 123 133 133 114 90 61 37 26
163 182 211 169 241 245 247 236 358 16 357 336 290 233 199 194 238 203 217 230 169 214 264 208 195 144 113 12 263 196 225 276 289 253 282 134 108 148 164 159 133 88 64 47 29
257 212 92 339 194 232 246 272 295 349 332 319 304 335 257 200 213 209 189 130 173 225 260 81 258 203 130 240 175 264 7 225 219 257 250 191 170 110 179 170 147 128 80 57 33
238 204 58 127 241 227 244 215 302 81 347 308 323 298 344 318 274 235 249 108 221 160 228 281 252 140 198 233 320 200 219 231 295 309 278 264 102 94 161 149 147 118 93 59 38
281 178 80 281 211 265 252 25 344 331 345 290 285 311 320 335 304 274 290 24 14 299 227 112 280 252 9 82 4 299 302 289 266 229 240 293 86 123 127 136 139 129 98 53 22
48 95 109 276 235 198 129 124 39 342 30 348 318 353 347 328 282 292 64 60 9 250 302 160 205 215 194 207 203 243 176 282 267 271 273 286 103 151 138 140 133 123 105 85 15
250 153 124 103 27 325 253 50 149 38 69 348 343 273 279 260 262 296 215 86 51 80 38 273 215 280 289 9 348 178 194 238 267 269 265 237 127 162 161 156 147 131 89 40 28
343 63 356 88 61 45 32 0 2 15 4 17 162 20 332 284 268 259 273 169 146 139 76 277 224 173 50 58 95 109 199 210 229 338 281 97 139 153 149 144 124 100 69 37 39
354 350 81 71 23 76 39 40 24 36 1 31 11 357 353 322 338 311 326 249 264 170 182 198 161 146 92 109 118 100 77 82 90 85 91 109 111 120 117 121 127 101 56 29 25
66 107 329 13 55 73 41 35 35 340 87 30 337 309 1 29 17 359 336 353 350 255 181 186 162 202 150 153 147 136 62 87 102 121 132 153 105 140 141 136 119 91 52 24 11